Year,Month,Day,Hour,Minute,Value (Times are PST for windgust in km/hr)
2018,12,19,00,00,14.50
2018,12,19,00,01,14.50
2018,12,19,00,02,14.50
2018,12,19,00,03,14.50
2018,12,19,00,04,16.10
2018,12,19,00,05,20.90
2018,12,19,00,06,19.30
2018,12,19,00,07,20.90
2018,12,19,00,08,24.20
2018,12,19,00,09,20.90
2018,12,19,00,10,24.20
2018,12,19,00,11,24.20
2018,12,19,00,12,22.50
2018,12,19,00,13,24.20
2018,12,19,00,14,22.50
2018,12,19,00,15,20.90
2018,12,19,00,16,27.40
2018,12,19,00,17,20.90
2018,12,19,00,18,17.70
2018,12,19,00,19,17.70
2018,12,19,00,20,19.30
2018,12,19,00,21,24.20
2018,12,19,00,22,30.60
2018,12,19,00,23,30.60
2018,12,19,00,24,30.60
2018,12,19,00,25,29.00
2018,12,19,00,26,30.60
2018,12,19,00,27,25.70
2018,12,19,00,28,30.60
2018,12,19,00,29,30.60
2018,12,19,00,30,32.20
2018,12,19,00,31,32.20
2018,12,19,00,32,32.20
2018,12,19,00,33,27.40
2018,12,19,00,34,29.00
2018,12,19,00,35,30.60
2018,12,19,00,36,33.80
2018,12,19,00,37,32.20
2018,12,19,00,38,30.60
2018,12,19,00,39,32.20
2018,12,19,00,40,29.00
2018,12,19,00,41,29.00
2018,12,19,00,42,29.00
2018,12,19,00,43,29.00
2018,12,19,00,44,27.40
2018,12,19,00,45,25.70
2018,12,19,00,46,24.20
2018,12,19,00,47,29.00
2018,12,19,00,48,27.40
2018,12,19,00,49,25.70
2018,12,19,00,50,25.70
2018,12,19,00,51,27.40
2018,12,19,00,52,25.70
2018,12,19,00,53,24.20
2018,12,19,00,54,25.70
2018,12,19,00,55,25.70
2018,12,19,00,56,27.40
2018,12,19,00,57,29.00
2018,12,19,00,58,27.40
2018,12,19,00,59,25.70
2018,12,19,01,00,24.20
2018,12,19,01,01,25.70
2018,12,19,01,02,20.90
2018,12,19,01,03,22.50
2018,12,19,01,04,22.50
2018,12,19,01,05,20.90
2018,12,19,01,06,20.90
2018,12,19,01,07,20.90
2018,12,19,01,08,20.90
2018,12,19,01,09,22.50
2018,12,19,01,10,22.50
2018,12,19,01,11,20.90
2018,12,19,01,12,19.30
2018,12,19,01,13,22.50
2018,12,19,01,14,22.50
2018,12,19,01,15,22.50
2018,12,19,01,16,24.20
2018,12,19,01,17,22.50
2018,12,19,01,18,20.90
2018,12,19,01,19,20.90
2018,12,19,01,20,19.30
2018,12,19,01,21,20.90
2018,12,19,01,22,19.30
2018,12,19,01,23,22.50
2018,12,19,01,24,20.90
2018,12,19,01,25,17.70
2018,12,19,01,26,17.70
2018,12,19,01,27,17.70
2018,12,19,01,28,20.90
2018,12,19,01,29,22.50
2018,12,19,01,30,25.70
2018,12,19,01,31,22.50
2018,12,19,01,32,27.40
2018,12,19,01,33,25.70
2018,12,19,01,34,27.40
2018,12,19,01,35,22.50
2018,12,19,01,36,25.70
2018,12,19,01,37,30.60
2018,12,19,01,38,29.00
2018,12,19,01,39,29.00
2018,12,19,01,40,29.00
2018,12,19,01,41,32.20
2018,12,19,01,42,29.00
2018,12,19,01,43,27.40
2018,12,19,01,44,27.40
2018,12,19,01,45,32.20
2018,12,19,01,46,27.40
2018,12,19,01,47,30.60
2018,12,19,01,48,27.40
2018,12,19,01,49,30.60
2018,12,19,01,50,27.40
2018,12,19,01,51,29.00
2018,12,19,01,52,30.60
2018,12,19,01,53,30.60
2018,12,19,01,54,30.60
2018,12,19,01,55,29.00
2018,12,19,01,56,27.40
2018,12,19,01,57,25.70
2018,12,19,01,58,25.70
2018,12,19,01,59,24.20
2018,12,19,02,00,25.70
2018,12,19,02,01,25.70
2018,12,19,02,02,25.70
2018,12,19,02,03,22.50
2018,12,19,02,04,25.70
2018,12,19,02,05,22.50
2018,12,19,02,06,25.70
2018,12,19,02,07,27.40
2018,12,19,02,08,24.20
2018,12,19,02,09,27.40
2018,12,19,02,10,30.60
2018,12,19,02,11,29.00
2018,12,19,02,12,29.00
2018,12,19,02,13,32.20
2018,12,19,02,14,30.60
2018,12,19,02,15,30.60
2018,12,19,02,16,33.80
2018,12,19,02,17,29.00
2018,12,19,02,18,29.00
2018,12,19,02,19,32.20
2018,12,19,02,20,30.60
2018,12,19,02,21,29.00
2018,12,19,02,22,29.00
2018,12,19,02,23,29.00
2018,12,19,02,24,29.00
2018,12,19,02,25,24.20
2018,12,19,02,26,27.40
2018,12,19,02,27,24.20
2018,12,19,02,28,24.20
2018,12,19,02,29,25.70
2018,12,19,02,30,24.20
2018,12,19,02,31,24.20
2018,12,19,02,32,27.40
2018,12,19,02,33,27.40
2018,12,19,02,34,30.60
2018,12,19,02,35,27.40
2018,12,19,02,36,25.70
2018,12,19,02,37,27.40
2018,12,19,02,38,24.20
2018,12,19,02,39,24.20
2018,12,19,02,40,25.70
2018,12,19,02,41,29.00
2018,12,19,02,42,25.70
2018,12,19,02,43,24.20
2018,12,19,02,44,25.70
2018,12,19,02,45,24.20
2018,12,19,02,46,27.40
2018,12,19,02,47,24.20
2018,12,19,02,48,24.20
2018,12,19,02,49,24.20
2018,12,19,02,50,22.50
2018,12,19,02,51,22.50
2018,12,19,02,52,25.70
2018,12,19,02,53,25.70
2018,12,19,02,54,20.90
2018,12,19,02,55,24.20
2018,12,19,02,56,24.20
2018,12,19,02,57,24.20
2018,12,19,02,58,19.30
2018,12,19,02,59,22.50
2018,12,19,03,00,19.30
2018,12,19,03,01,22.50
2018,12,19,03,02,22.50
2018,12,19,03,03,17.70
2018,12,19,03,04,24.20
2018,12,19,03,05,25.70
2018,12,19,03,06,19.30
2018,12,19,03,07,22.50
2018,12,19,03,08,24.20
2018,12,19,03,09,20.90
2018,12,19,03,10,20.90
2018,12,19,03,11,32.20
2018,12,19,03,12,32.20
2018,12,19,03,13,33.80
2018,12,19,03,14,37.00
2018,12,19,03,15,32.20
2018,12,19,03,16,32.20
2018,12,19,03,17,40.20
2018,12,19,03,18,37.00
2018,12,19,03,19,37.00
2018,12,19,03,20,35.40
2018,12,19,03,21,33.80
2018,12,19,03,22,37.00
2018,12,19,03,23,33.80
2018,12,19,03,24,33.80
2018,12,19,03,25,35.40
2018,12,19,03,26,32.20
2018,12,19,03,27,37.00
2018,12,19,03,28,33.80
2018,12,19,03,29,29.00
2018,12,19,03,30,30.60
2018,12,19,03,31,27.40
2018,12,19,03,32,27.40
2018,12,19,03,33,30.60
2018,12,19,03,34,29.00
2018,12,19,03,35,29.00
2018,12,19,03,36,27.40
2018,12,19,03,37,25.70
2018,12,19,03,38,29.00
2018,12,19,03,39,29.00
2018,12,19,03,40,30.60
2018,12,19,03,41,30.60
2018,12,19,03,42,30.60
2018,12,19,03,43,32.20
2018,12,19,03,44,29.00
2018,12,19,03,45,27.40
2018,12,19,03,46,27.40
2018,12,19,03,47,27.40
2018,12,19,03,48,29.00
2018,12,19,03,49,27.40
2018,12,19,03,50,29.00
2018,12,19,03,51,25.70
2018,12,19,03,52,24.20
2018,12,19,03,53,22.50
2018,12,19,03,54,24.20
2018,12,19,03,55,27.40
2018,12,19,03,56,20.90
2018,12,19,03,57,24.20
2018,12,19,03,58,22.50
2018,12,19,03,59,20.90
2018,12,19,04,00,24.20
2018,12,19,04,01,22.50
2018,12,19,04,02,22.50
2018,12,19,04,03,24.20
2018,12,19,04,04,22.50
2018,12,19,04,05,22.50
2018,12,19,04,06,27.40
2018,12,19,04,07,22.50
2018,12,19,04,08,20.90
2018,12,19,04,09,24.20
2018,12,19,04,10,22.50
2018,12,19,04,11,25.70
2018,12,19,04,12,25.70
2018,12,19,04,13,22.50
2018,12,19,04,14,22.50
2018,12,19,04,15,22.50
2018,12,19,04,16,22.50
2018,12,19,04,17,20.90
2018,12,19,04,18,20.90
2018,12,19,04,19,20.90
2018,12,19,04,20,19.30
2018,12,19,04,21,17.70
2018,12,19,04,22,17.70
2018,12,19,04,23,14.50
2018,12,19,04,24,14.50
2018,12,19,04,25,16.10
2018,12,19,04,26,19.30
2018,12,19,04,27,14.50
2018,12,19,04,28,11.30
2018,12,19,04,29,12.90
2018,12,19,04,30,12.90
2018,12,19,04,31,11.30
2018,12,19,04,32,9.60
2018,12,19,04,33,11.30
2018,12,19,04,34,11.30
2018,12,19,04,35,11.30
2018,12,19,04,36,11.30
2018,12,19,04,37,9.60
2018,12,19,04,38,9.60
2018,12,19,04,39,8.10
2018,12,19,04,40,6.40
2018,12,19,04,41,4.80
2018,12,19,04,42,8.10
2018,12,19,04,43,8.10
2018,12,19,04,44,9.60
2018,12,19,04,45,9.60
2018,12,19,04,46,11.30
2018,12,19,04,47,9.60
2018,12,19,04,48,8.10
2018,12,19,04,49,6.40
2018,12,19,04,50,8.10
2018,12,19,04,51,9.60
2018,12,19,04,52,9.60
2018,12,19,04,53,14.50
2018,12,19,04,54,12.90
2018,12,19,04,55,17.70
2018,12,19,04,56,19.30
2018,12,19,04,57,14.50
2018,12,19,04,58,12.90
2018,12,19,04,59,24.20
2018,12,19,05,00,16.10
2018,12,19,05,01,11.30
2018,12,19,05,02,22.50
2018,12,19,05,03,20.90
2018,12,19,05,04,22.50
2018,12,19,05,05,19.30
2018,12,19,05,06,17.70
2018,12,19,05,07,17.70
2018,12,19,05,08,12.90
2018,12,19,05,09,16.10
2018,12,19,05,10,19.30
2018,12,19,05,11,17.70
2018,12,19,05,12,19.30
2018,12,19,05,13,22.50
2018,12,19,05,14,20.90
2018,12,19,05,15,24.20
2018,12,19,05,16,30.60
2018,12,19,05,17,24.20
2018,12,19,05,18,24.20
2018,12,19,05,19,25.70
2018,12,19,05,20,22.50
2018,12,19,05,21,25.70
2018,12,19,05,22,20.90
2018,12,19,05,23,19.30
2018,12,19,05,24,19.30
2018,12,19,05,25,20.90
2018,12,19,05,26,17.70
2018,12,19,05,27,17.70
2018,12,19,05,28,17.70
2018,12,19,05,29,17.70
2018,12,19,05,30,17.70
2018,12,19,05,31,20.90
2018,12,19,05,32,19.30
2018,12,19,05,33,20.90
2018,12,19,05,34,19.30
2018,12,19,05,35,17.70
2018,12,19,05,36,19.30
2018,12,19,05,37,20.90
2018,12,19,05,38,16.10
2018,12,19,05,39,20.90
2018,12,19,05,40,22.50
2018,12,19,05,41,17.70
2018,12,19,05,42,17.70
2018,12,19,05,43,17.70
2018,12,19,05,44,16.10
2018,12,19,05,45,17.70
2018,12,19,05,46,19.30
2018,12,19,05,47,12.90
2018,12,19,05,48,20.90
2018,12,19,05,49,19.30
2018,12,19,05,50,19.30
2018,12,19,05,51,19.30
2018,12,19,05,52,20.90
2018,12,19,05,53,19.30
2018,12,19,05,54,25.70
2018,12,19,05,55,24.20
2018,12,19,05,56,22.50
2018,12,19,05,57,24.20
2018,12,19,05,58,25.70
2018,12,19,05,59,25.70
2018,12,19,06,00,24.20
2018,12,19,06,01,27.40
2018,12,19,06,02,24.20
2018,12,19,06,03,29.00
2018,12,19,06,04,25.70
2018,12,19,06,05,24.20
2018,12,19,06,06,29.00
2018,12,19,06,07,22.50
2018,12,19,06,08,22.50
2018,12,19,06,09,19.30
2018,12,19,06,10,19.30
2018,12,19,06,11,22.50
2018,12,19,06,12,20.90
2018,12,19,06,13,20.90
2018,12,19,06,14,19.30
2018,12,19,06,15,20.90
2018,12,19,06,16,19.30
2018,12,19,06,17,20.90
2018,12,19,06,18,20.90
2018,12,19,06,19,19.30
2018,12,19,06,20,19.30
2018,12,19,06,21,17.70
2018,12,19,06,22,19.30
2018,12,19,06,23,17.70
2018,12,19,06,24,17.70
2018,12,19,06,25,17.70
2018,12,19,06,26,19.30
2018,12,19,06,27,24.20
2018,12,19,06,28,17.70
2018,12,19,06,29,19.30
2018,12,19,06,30,16.10
2018,12,19,06,31,17.70
2018,12,19,06,32,14.50
2018,12,19,06,33,19.30
2018,12,19,06,34,16.10
2018,12,19,06,35,22.50
2018,12,19,06,36,16.10
2018,12,19,06,37,16.10
2018,12,19,06,38,12.90
2018,12,19,06,39,16.10
2018,12,19,06,40,20.90
2018,12,19,06,41,22.50
2018,12,19,06,42,19.30
2018,12,19,06,43,14.50
2018,12,19,06,44,22.50
2018,12,19,06,45,25.70
2018,12,19,06,46,20.90
2018,12,19,06,47,14.50
2018,12,19,06,48,16.10
2018,12,19,06,49,14.50
2018,12,19,06,50,11.30
2018,12,19,06,51,12.90
2018,12,19,06,52,12.90
2018,12,19,06,53,12.90
2018,12,19,06,54,14.50
2018,12,19,06,55,11.30
2018,12,19,06,56,11.30
2018,12,19,06,57,14.50
2018,12,19,06,58,14.50
2018,12,19,06,59,11.30
2018,12,19,07,00,12.90
2018,12,19,07,01,11.30
2018,12,19,07,02,11.30
2018,12,19,07,03,8.10
2018,12,19,07,04,11.30
2018,12,19,07,05,12.90
2018,12,19,07,06,11.30
2018,12,19,07,07,8.10
2018,12,19,07,08,8.10
2018,12,19,07,09,8.10
2018,12,19,07,10,8.10
2018,12,19,07,11,8.10
2018,12,19,07,12,8.10
2018,12,19,07,13,8.10
2018,12,19,07,14,9.60
2018,12,19,07,15,6.40
2018,12,19,07,16,8.10
2018,12,19,07,17,8.10
2018,12,19,07,18,6.40
2018,12,19,07,19,3.20
2018,12,19,07,20,8.10
2018,12,19,07,21,8.10
2018,12,19,07,22,6.40
2018,12,19,07,23,11.30
2018,12,19,07,24,9.60
2018,12,19,07,25,12.90
2018,12,19,07,26,16.10
2018,12,19,07,27,12.90
2018,12,19,07,28,12.90
2018,12,19,07,29,11.30
2018,12,19,07,30,12.90
2018,12,19,07,31,12.90
2018,12,19,07,32,14.50
2018,12,19,07,33,14.50
2018,12,19,07,34,16.10
2018,12,19,07,35,14.50
2018,12,19,07,36,12.90
2018,12,19,07,37,12.90
2018,12,19,07,38,14.50
2018,12,19,07,39,14.50
2018,12,19,07,40,16.10
2018,12,19,07,41,16.10
2018,12,19,07,42,14.50
2018,12,19,07,43,14.50
2018,12,19,07,44,17.70
2018,12,19,07,45,17.70
2018,12,19,07,46,16.10
2018,12,19,07,47,16.10
2018,12,19,07,48,17.70
2018,12,19,07,49,16.10
2018,12,19,07,50,17.70
2018,12,19,07,51,16.10
2018,12,19,07,52,12.90
2018,12,19,07,53,12.90
2018,12,19,07,54,12.90
2018,12,19,07,55,12.90
2018,12,19,07,56,11.30
2018,12,19,07,57,14.50
2018,12,19,07,58,12.90
2018,12,19,07,59,12.90
2018,12,19,08,00,12.90
2018,12,19,08,01,11.30
2018,12,19,08,02,9.60
2018,12,19,08,03,12.90
2018,12,19,08,04,11.30
2018,12,19,08,05,9.60
2018,12,19,08,06,9.60
2018,12,19,08,07,8.10
2018,12,19,08,08,9.60
2018,12,19,08,09,9.60
2018,12,19,08,10,11.30
2018,12,19,08,11,9.60
2018,12,19,08,12,8.10
2018,12,19,08,13,6.40
2018,12,19,08,14,8.10
2018,12,19,08,15,9.60
2018,12,19,08,16,12.90
2018,12,19,08,17,12.90
2018,12,19,08,18,9.60
2018,12,19,08,19,11.30
2018,12,19,08,20,9.60
2018,12,19,08,21,8.10
2018,12,19,08,22,9.60
2018,12,19,08,23,9.60
2018,12,19,08,24,17.70
2018,12,19,08,25,16.10
2018,12,19,08,26,14.50
2018,12,19,08,27,14.50
2018,12,19,08,28,16.10
2018,12,19,08,29,16.10
2018,12,19,08,30,12.90
2018,12,19,08,31,16.10
2018,12,19,08,32,14.50
2018,12,19,08,33,12.90
2018,12,19,08,34,14.50
2018,12,19,08,35,14.50
2018,12,19,08,36,12.90
2018,12,19,08,37,12.90
2018,12,19,08,38,9.60
2018,12,19,08,39,12.90
2018,12,19,08,40,14.50
2018,12,19,08,41,9.60
2018,12,19,08,42,9.60
2018,12,19,08,43,9.60
2018,12,19,08,44,14.50
2018,12,19,08,45,12.90
2018,12,19,08,46,12.90
2018,12,19,08,47,16.10
2018,12,19,08,48,16.10
2018,12,19,08,49,16.10
2018,12,19,08,50,14.50
2018,12,19,08,51,14.50
2018,12,19,08,52,14.50
2018,12,19,08,53,12.90
2018,12,19,08,54,12.90
2018,12,19,08,55,14.50
2018,12,19,08,56,12.90
2018,12,19,08,57,12.90
2018,12,19,08,58,12.90
2018,12,19,08,59,9.60
2018,12,19,09,00,9.60
2018,12,19,09,01,9.60
2018,12,19,09,02,9.60
2018,12,19,09,03,9.60
2018,12,19,09,04,12.90
2018,12,19,09,05,14.50
2018,12,19,09,06,14.50
2018,12,19,09,07,12.90
2018,12,19,09,08,12.90
2018,12,19,09,09,12.90
2018,12,19,09,10,8.10
2018,12,19,09,11,9.60
2018,12,19,09,12,6.40
2018,12,19,09,13,6.40
2018,12,19,09,14,6.40
2018,12,19,09,15,8.10
2018,12,19,09,16,6.40
2018,12,19,09,17,8.10
2018,12,19,09,18,8.10
2018,12,19,09,19,8.10
2018,12,19,09,20,9.60
2018,12,19,09,21,9.60
2018,12,19,09,22,9.60
2018,12,19,09,23,9.60
2018,12,19,09,24,12.90
2018,12,19,09,25,12.90
2018,12,19,09,26,16.10
2018,12,19,09,27,17.70
2018,12,19,09,28,16.10
2018,12,19,09,29,16.10
2018,12,19,09,30,14.50
2018,12,19,09,31,14.50
2018,12,19,09,32,9.60
2018,12,19,09,33,9.60
2018,12,19,09,34,14.50
2018,12,19,09,35,16.10
2018,12,19,09,36,16.10
2018,12,19,09,37,16.10
2018,12,19,09,38,16.10
2018,12,19,09,39,14.50
2018,12,19,09,40,16.10
2018,12,19,09,41,16.10
2018,12,19,09,42,16.10
2018,12,19,09,43,19.30
2018,12,19,09,44,17.70
2018,12,19,09,45,14.50
2018,12,19,09,46,14.50
2018,12,19,09,47,14.50
2018,12,19,09,48,12.90
2018,12,19,09,49,12.90
2018,12,19,09,50,11.30
2018,12,19,09,51,11.30
2018,12,19,09,52,11.30
2018,12,19,09,53,9.60
2018,12,19,09,54,9.60
2018,12,19,09,55,11.30
2018,12,19,09,56,9.60
2018,12,19,09,57,9.60
2018,12,19,09,58,11.30
2018,12,19,09,59,12.90
2018,12,19,10,00,9.60
2018,12,19,10,01,9.60
2018,12,19,10,02,9.60
2018,12,19,10,03,9.60
2018,12,19,10,04,9.60
2018,12,19,10,05,11.30
2018,12,19,10,06,12.90
2018,12,19,10,07,11.30
2018,12,19,10,08,11.30
2018,12,19,10,09,9.60
2018,12,19,10,10,9.60
2018,12,19,10,11,11.30
2018,12,19,10,12,6.40
2018,12,19,10,13,11.30
2018,12,19,10,14,9.60
2018,12,19,10,15,9.60
2018,12,19,10,16,9.60
2018,12,19,10,17,11.30
2018,12,19,10,18,11.30
2018,12,19,10,19,11.30
2018,12,19,10,20,12.90
2018,12,19,10,21,12.90
2018,12,19,10,22,12.90
2018,12,19,10,23,12.90
2018,12,19,10,24,9.60
2018,12,19,10,25,11.30
2018,12,19,10,26,11.30
2018,12,19,10,27,12.90
2018,12,19,10,28,12.90
2018,12,19,10,29,11.30
2018,12,19,10,30,11.30
2018,12,19,10,31,12.90
2018,12,19,10,32,11.30
2018,12,19,10,33,9.60
2018,12,19,10,34,9.60
2018,12,19,10,35,9.60
2018,12,19,10,36,9.60
2018,12,19,10,37,6.40
2018,12,19,10,38,6.40
2018,12,19,10,39,9.60
2018,12,19,10,40,6.40
2018,12,19,10,41,6.40
2018,12,19,10,42,6.40
2018,12,19,10,43,6.40
2018,12,19,10,44,3.20
2018,12,19,10,45,4.80
2018,12,19,10,46,4.80
2018,12,19,10,47,4.80
2018,12,19,10,48,4.80
2018,12,19,10,49,3.20
2018,12,19,10,50,3.20
2018,12,19,10,51,3.20
2018,12,19,10,52,3.20
2018,12,19,10,53,3.20
2018,12,19,10,54,3.20
2018,12,19,10,55,4.80
2018,12,19,10,56,4.80
2018,12,19,10,57,3.20
2018,12,19,10,58,6.40
2018,12,19,10,59,4.80
2018,12,19,11,00,4.80
2018,12,19,11,01,6.40
2018,12,19,11,02,4.80
2018,12,19,11,03,4.80
2018,12,19,11,04,6.40
2018,12,19,11,05,11.30
2018,12,19,11,06,6.40
2018,12,19,11,07,4.80
2018,12,19,11,08,1.60
2018,12,19,11,10,3.20
2018,12,19,11,11,4.80
2018,12,19,11,12,1.60
2018,12,19,11,13,3.20
2018,12,19,11,14,4.80
2018,12,19,11,15,4.80
2018,12,19,11,16,4.80
2018,12,19,11,17,3.20
2018,12,19,11,18,9.60
2018,12,19,11,19,9.60
2018,12,19,11,20,6.40
2018,12,19,11,21,4.80
2018,12,19,11,22,9.60
2018,12,19,11,23,6.40
2018,12,19,11,24,4.80
2018,12,19,11,25,4.80
2018,12,19,11,26,4.80
2018,12,19,11,27,3.20
2018,12,19,11,28,1.60
2018,12,19,11,29,1.60
2018,12,19,11,30,1.60
2018,12,19,11,31,1.60
2018,12,19,11,32,3.20
2018,12,19,11,33,6.40
2018,12,19,11,34,4.80
2018,12,19,11,35,6.40
2018,12,19,11,36,9.60
2018,12,19,11,37,12.90
2018,12,19,11,38,11.30
2018,12,19,11,39,9.60
2018,12,19,11,40,6.40
2018,12,19,11,41,6.40
2018,12,19,11,42,4.80
2018,12,19,11,43,4.80
2018,12,19,11,45,1.60
2018,12,19,11,47,4.80
2018,12,19,11,48,6.40
2018,12,19,11,49,6.40
2018,12,19,11,50,4.80
2018,12,19,11,51,6.40
2018,12,19,11,52,6.40
2018,12,19,11,53,4.80
2018,12,19,11,54,8.10
2018,12,19,11,55,8.10
2018,12,19,11,56,8.10
2018,12,19,11,57,6.40
2018,12,19,11,58,6.40
2018,12,19,11,59,6.40
2018,12,19,12,00,6.40
2018,12,19,12,01,8.10
2018,12,19,12,02,6.40
2018,12,19,12,03,4.80
2018,12,19,12,04,6.40
2018,12,19,12,05,8.10
2018,12,19,12,06,9.60
2018,12,19,12,07,9.60
2018,12,19,12,08,9.60
2018,12,19,12,09,8.10
2018,12,19,12,10,6.40
2018,12,19,12,11,6.40
2018,12,19,12,12,6.40
2018,12,19,12,13,4.80
2018,12,19,12,14,6.40
2018,12,19,12,15,6.40
2018,12,19,12,16,6.40
2018,12,19,12,17,4.80
2018,12,19,12,18,4.80
2018,12,19,12,19,6.40
2018,12,19,12,20,6.40
2018,12,19,12,21,8.10
2018,12,19,12,22,8.10
2018,12,19,12,23,8.10
2018,12,19,12,24,4.80
2018,12,19,12,25,6.40
2018,12,19,12,26,6.40
2018,12,19,12,27,4.80
2018,12,19,12,28,4.80
2018,12,19,12,29,3.20
2018,12,19,12,30,4.80
2018,12,19,12,31,6.40
2018,12,19,12,32,6.40
2018,12,19,12,33,8.10
2018,12,19,12,34,4.80
2018,12,19,12,35,4.80
2018,12,19,12,36,4.80
2018,12,19,12,37,3.20
2018,12,19,12,38,4.80
2018,12,19,12,39,1.60
2018,12,19,12,40,6.40
2018,12,19,12,41,4.80
2018,12,19,12,42,8.10
2018,12,19,12,43,8.10
2018,12,19,12,44,9.60
2018,12,19,12,45,9.60
2018,12,19,12,46,6.40
2018,12,19,12,47,9.60
2018,12,19,12,48,8.10
2018,12,19,12,49,6.40
2018,12,19,12,50,6.40
2018,12,19,12,51,6.40
2018,12,19,12,52,4.80
2018,12,19,12,53,1.60
2018,12,19,12,54,4.80
2018,12,19,12,55,4.80
2018,12,19,12,56,4.80
2018,12,19,12,57,4.80
2018,12,19,12,58,4.80
2018,12,19,12,59,6.40
2018,12,19,13,00,6.40
2018,12,19,13,01,6.40
2018,12,19,13,02,6.40
2018,12,19,13,03,4.80
2018,12,19,13,04,6.40
2018,12,19,13,05,6.40
2018,12,19,13,06,6.40
2018,12,19,13,07,6.40
2018,12,19,13,08,6.40
2018,12,19,13,09,4.80
2018,12,19,13,10,4.80
2018,12,19,13,11,4.80
2018,12,19,13,12,4.80
2018,12,19,13,13,3.20
2018,12,19,13,14,3.20
2018,12,19,13,15,4.80
2018,12,19,13,16,3.20
2018,12,19,13,17,4.80
2018,12,19,13,18,3.20
2018,12,19,13,19,4.80
2018,12,19,13,20,4.80
2018,12,19,13,21,6.40
2018,12,19,13,22,6.40
2018,12,19,13,23,6.40
2018,12,19,13,24,6.40
2018,12,19,13,25,4.80
2018,12,19,13,26,4.80
2018,12,19,13,27,6.40
2018,12,19,13,28,6.40
2018,12,19,13,29,4.80
2018,12,19,13,30,6.40
2018,12,19,13,31,6.40
2018,12,19,13,32,6.40
2018,12,19,13,33,6.40
2018,12,19,13,34,6.40
2018,12,19,13,35,6.40
2018,12,19,13,36,4.80
2018,12,19,13,37,4.80
2018,12,19,13,38,4.80
2018,12,19,13,39,4.80
2018,12,19,13,40,4.80
2018,12,19,13,41,6.40
2018,12,19,13,42,6.40
2018,12,19,13,43,6.40
2018,12,19,13,44,4.80
2018,12,19,13,45,4.80
2018,12,19,13,46,4.80
2018,12,19,13,47,4.80
2018,12,19,13,48,4.80
2018,12,19,13,49,6.40
2018,12,19,13,50,6.40
2018,12,19,13,51,6.40
2018,12,19,13,52,6.40
2018,12,19,13,53,4.80
2018,12,19,13,54,4.80
2018,12,19,13,55,4.80
2018,12,19,13,56,4.80
2018,12,19,13,57,4.80
2018,12,19,13,58,4.80
2018,12,19,13,59,4.80
2018,12,19,14,00,4.80
2018,12,19,14,01,4.80
2018,12,19,14,02,4.80
2018,12,19,14,03,4.80
2018,12,19,14,04,6.40
2018,12,19,14,05,4.80
2018,12,19,14,06,4.80
2018,12,19,14,07,4.80
2018,12,19,14,08,4.80
2018,12,19,14,09,4.80
2018,12,19,14,10,4.80
2018,12,19,14,11,4.80
2018,12,19,14,12,4.80
2018,12,19,14,13,3.20
2018,12,19,14,14,4.80
2018,12,19,14,15,4.80
2018,12,19,14,16,4.80
2018,12,19,14,17,3.20
2018,12,19,14,18,3.20
2018,12,19,14,19,3.20
2018,12,19,14,20,3.20
2018,12,19,14,21,3.20
2018,12,19,14,22,3.20
2018,12,19,14,23,4.80
2018,12,19,14,24,4.80
2018,12,19,14,25,3.20
2018,12,19,14,26,4.80
2018,12,19,14,27,4.80
2018,12,19,14,28,4.80
2018,12,19,14,29,4.80
2018,12,19,14,30,6.40
2018,12,19,14,31,6.40
2018,12,19,14,32,6.40
2018,12,19,14,33,6.40
2018,12,19,14,34,6.40
2018,12,19,14,35,6.40
2018,12,19,14,36,6.40
2018,12,19,14,37,8.10
2018,12,19,14,38,6.40
2018,12,19,14,39,6.40
2018,12,19,14,40,8.10
2018,12,19,14,41,6.40
2018,12,19,14,42,6.40
2018,12,19,14,43,6.40
2018,12,19,14,44,6.40
2018,12,19,14,45,6.40
2018,12,19,14,46,8.10
2018,12,19,14,47,6.40
2018,12,19,14,48,8.10
2018,12,19,14,49,6.40
2018,12,19,14,50,6.40
2018,12,19,14,51,8.10
2018,12,19,14,52,8.10
2018,12,19,14,53,8.10
2018,12,19,14,54,8.10
2018,12,19,14,55,9.60
2018,12,19,14,56,9.60
2018,12,19,14,57,9.60
2018,12,19,14,58,8.10
2018,12,19,14,59,8.10
2018,12,19,15,00,9.60
2018,12,19,15,01,9.60
2018,12,19,15,02,9.60
2018,12,19,15,03,9.60
2018,12,19,15,04,9.60
2018,12,19,15,05,8.10
2018,12,19,15,06,8.10
2018,12,19,15,07,6.40
2018,12,19,15,08,6.40
2018,12,19,15,09,6.40
2018,12,19,15,10,6.40
2018,12,19,15,11,9.60
2018,12,19,15,12,9.60
2018,12,19,15,13,11.30
2018,12,19,15,14,8.10
2018,12,19,15,15,9.60
2018,12,19,15,16,9.60
2018,12,19,15,17,9.60
2018,12,19,15,18,9.60
2018,12,19,15,19,8.10
2018,12,19,15,20,8.10
2018,12,19,15,21,9.60
2018,12,19,15,22,9.60
2018,12,19,15,23,9.60
2018,12,19,15,24,9.60
2018,12,19,15,25,9.60
2018,12,19,15,26,9.60
2018,12,19,15,27,11.30
2018,12,19,15,28,11.30
2018,12,19,15,29,11.30
2018,12,19,15,30,11.30
2018,12,19,15,31,14.50
2018,12,19,15,32,12.90
2018,12,19,15,33,12.90
2018,12,19,15,34,14.50
2018,12,19,15,35,14.50
2018,12,19,15,36,11.30
2018,12,19,15,37,9.60
2018,12,19,15,38,11.30
2018,12,19,15,39,12.90
2018,12,19,15,40,12.90
2018,12,19,15,41,11.30
2018,12,19,15,42,12.90
2018,12,19,15,43,12.90
2018,12,19,15,44,11.30
2018,12,19,15,45,11.30
2018,12,19,15,46,11.30
2018,12,19,15,47,12.90
2018,12,19,15,48,14.50
2018,12,19,15,49,12.90
2018,12,19,15,50,14.50
2018,12,19,15,51,17.70
2018,12,19,15,52,14.50
2018,12,19,15,53,12.90
2018,12,19,15,54,17.70
2018,12,19,15,55,14.50
2018,12,19,15,56,17.70
2018,12,19,15,57,14.50
2018,12,19,15,58,12.90
2018,12,19,15,59,17.70
2018,12,19,16,00,16.10
2018,12,19,16,01,16.10
2018,12,19,16,02,16.10
2018,12,19,16,03,14.50
2018,12,19,16,04,14.50
2018,12,19,16,05,14.50
2018,12,19,16,06,14.50
2018,12,19,16,07,14.50
2018,12,19,16,08,14.50
2018,12,19,16,09,14.50
2018,12,19,16,10,16.10
2018,12,19,16,11,16.10
2018,12,19,16,12,16.10
2018,12,19,16,13,14.50
2018,12,19,16,14,14.50
2018,12,19,16,15,14.50
2018,12,19,16,16,16.10
2018,12,19,16,17,16.10
2018,12,19,16,18,16.10
2018,12,19,16,19,16.10
2018,12,19,16,20,16.10
2018,12,19,16,21,16.10
2018,12,19,16,22,14.50
2018,12,19,16,23,16.10
2018,12,19,16,24,14.50
2018,12,19,16,25,16.10
2018,12,19,16,26,16.10
2018,12,19,16,27,14.50
2018,12,19,16,28,12.90
2018,12,19,16,29,14.50
2018,12,19,16,30,14.50
2018,12,19,16,31,12.90
2018,12,19,16,32,16.10
2018,12,19,16,33,17.70
2018,12,19,16,34,17.70
2018,12,19,16,35,17.70
2018,12,19,16,36,16.10
2018,12,19,16,37,19.30
2018,12,19,16,38,19.30
2018,12,19,16,39,17.70
2018,12,19,16,40,19.30
2018,12,19,16,41,19.30
2018,12,19,16,42,20.90
2018,12,19,16,43,19.30
2018,12,19,16,44,19.30
2018,12,19,16,45,17.70
2018,12,19,16,46,17.70
2018,12,19,16,47,20.90
2018,12,19,16,48,20.90
2018,12,19,16,49,19.30
2018,12,19,16,50,17.70
2018,12,19,16,51,17.70
2018,12,19,16,52,17.70
2018,12,19,16,53,22.50
2018,12,19,16,54,24.20
2018,12,19,16,55,22.50
2018,12,19,16,56,24.20
2018,12,19,16,57,24.20
2018,12,19,16,58,24.20
2018,12,19,16,59,24.20
2018,12,19,17,00,24.20
2018,12,19,17,01,22.50
2018,12,19,17,02,25.70
2018,12,19,17,03,24.20
2018,12,19,17,04,20.90
2018,12,19,17,05,20.90
2018,12,19,17,06,20.90
2018,12,19,17,07,20.90
2018,12,19,17,08,24.20
2018,12,19,17,09,22.50
2018,12,19,17,10,20.90
2018,12,19,17,11,20.90
2018,12,19,17,12,22.50
2018,12,19,17,13,22.50
2018,12,19,17,14,20.90
2018,12,19,17,15,19.30
2018,12,19,17,16,19.30
2018,12,19,17,17,19.30
2018,12,19,17,18,20.90
2018,12,19,17,19,20.90
2018,12,19,17,20,20.90
2018,12,19,17,21,20.90
2018,12,19,17,22,19.30
2018,12,19,17,23,20.90
2018,12,19,17,24,17.70
2018,12,19,17,25,19.30
2018,12,19,17,26,19.30
2018,12,19,17,27,17.70
2018,12,19,17,28,19.30
2018,12,19,17,29,17.70
2018,12,19,17,30,19.30
2018,12,19,17,31,20.90
2018,12,19,17,32,17.70
2018,12,19,17,33,22.50
2018,12,19,17,34,19.30
2018,12,19,17,35,19.30
2018,12,19,17,36,19.30
2018,12,19,17,37,19.30
2018,12,19,17,38,19.30